[[{"header":{"parameterUnit":"m.s-1","parameterCategory":2,"la1":30.2991,"la2":30.254,"lo1":-89.0895,"lo2":-89.0444,"dy":0.0017,"dx":0.0017,"nx":28,"ny":28,"refTime":"2024-07-03T21:00:00:Z","depth":"0","parameterNumber":2,"parameterNumberName":"U-component_of_CURRENTS"},"data":[0,0,0,0,0,0,0,0,0,0,0,0,0,0,0,0,0,0,0,0,0,0,0,0,0,0,0,0,0,0,0,0,0,0,0,0,0,0,0,0,0,0,0,0,0,0,0,0,0,0,0,0,0,0,0,0,0,0,0.3642,0.3642,0,0.3695,0.3696,0.3696,0.3699,0.3698,0.3698,0.3697,0.3725,0.3726,0.3727,0,0,0,0,0,0,0,0,0,0,0,0,0,0.3544,0.3546,0.3642,0.3642,0.3643,0.3695,0.3696,0.3696,0.3699,0.3698,0.3697,0.3697,0.3724,0.3726,0.3728,0,0,0,0,0,0,0,0,0,0,0,0,0,0.3591,0.3546,0.3642,0.3651,0.3652,0.3695,0.3696,0.3697,0.3699,0.3698,0.3697,0.3696,0.3724,0.3726,0.3728,0.3758,0,0,0.3734,0.3735,0,0,0,0,0,0,0,0,0.3588,0.3594,0.3649,0.365,0.3652,0.369,0.3672,0.3716,0.3699,0.3681,0.3697,0.3696,0.3712,0.3715,0.3726,0.3759,0.376,0.3734,0.3735,0.3736,0.3736,0,0,0,0,0,0,0,0.3585,0.3592,0.3663,0.365,0.3651,0.3653,0.3659,0.368,0.37,0.3682,0.3683,0.369,0.3712,0.3725,0.3727,0.3761,0.3734,0.3736,0.3737,0.3738,0.3869,0.3871,0,0,0,0,0,0,0.358,0.3589,0.3661,0.3664,0.3617,0.3656,0.3662,0.3678,0.37,0.3703,0.369,0.3689,0.3722,0.3725,0.3728,0.3822,0.3736,0.3738,0.3739,0.3867,0.387,0.3872,0,0,0,0,0,0,0.3578,0.3586,0.3659,0.3627,0.3636,0.3658,0.3677,0.368,0.3693,0.3707,0.3709,0.37,0.3721,0.3725,0.3749,0.382,0.3739,0.374,0.3864,0.3868,0.3871,0.3973,0,0,0,0,0,0,0.3575,0.3586,0.3597,0.3627,0.3638,0.3693,0.3678,0.3681,0.3699,0.3698,0.3716,0.3718,0.3721,0.3746,0.3751,0.3822,0.3742,0.3861,0.3866,0.387,0.3966,0.3979,0.399,0,0,0,0,0,0.3572,0.3596,0.3598,0.3606,0.3654,0.3694,0.3701,0.3711,0.37,0.3718,0.3721,0.3717,0.3778,0.3748,0.3754,0.3827,0.3859,0.3864,0.3869,0.3961,0.3977,0.399,0,0,0,0,0,0,0.3553,0.3599,0.3602,0.3636,0.3665,0.3695,0.3713,0.3716,0.3734,0.3731,0.3732,0.3735,0.3792,0.3786,0.3753,0.3878,0.3825,0.3831,0.3893,0.3908,0.3919,0.3992,0.3744,0,0,0,0,0,0.3556,0.3591,0.3624,0.3652,0.3668,0.3689,0.3706,0.3716,0.3735,0.3742,0.3752,0.3774,0.3821,0.3839,0.3867,0.3922,0.3964,0.3977,0.3989,0.3999,0.4062,0.4177,0.4207,0.3889,0.3889,0.3889,0,0,0.3554,0.3585,0.3603,0.3651,0.3673,0.3722,0.3698,0.3732,0.3782,0.3743,0.3802,0.3812,0.3842,0.3913,0.394,0.3914,0.4103,0.4005,0.4014,0.4073,0.4186,0.4217,0.4245,0.3893,0.3892,0.3892,0,0,0.3586,0.3599,0.3646,0.3676,0.3719,0.3742,0.3752,0.3787,0.3812,0.3857,0.3864,0.3924,0.3948,0.4022,0.4055,0.4152,0.416,0.414,0.4266,0.4376,0.4404,0.4429,0.4489,0.4519,0.4148,0.4148,0.4148,0,0.3581,0.3652,0.3662,0.3717,0.3758,0.3755,0.3821,0.385,0.3887,0.3939,0.3885,0.4016,0.4028,0.4182,0.4218,0.419,0.4223,0.4205,0.4395,0.4422,0.4446,0.4502,0.4534,0.4154,0.4153,0.4153,0.4152,0,0.3658,0.3711,0.374,0.3818,0.3857,0.391,0.3955,0.3999,0.4012,0.4053,0.4173,0.4195,0.4285,0.4298,0.429,0.4482,0.4437,0.4394,0.4364,0.4485,0.4534,0.4565,0.4162,0.416,0.4158,0.4157,0,0,0.3675,0.3778,0.379,0.3851,0.3922,0.3968,0.406,0.4169,0.4251,0.4285,0.4411,0.451,0.452,0.4563,0.4567,0.4672,0.4851,0.4613,0.4616,0.4683,0.5065,0.4909,0.4927,0.4829,0.4836,0.4841,0.5017,0,0.3743,0.3861,0.3902,0.4024,0.4096,0.4139,0.4224,0.4313,0.4374,0.4479,0.4558,0.4657,0.4618,0.4663,0.4771,0.4836,0.4945,0.4806,0.4932,0.4937,0.4792,0.4964,0.4726,0.4853,0.5047,0.5053,0.5056,0,0.3827,0.3899,0.4024,0.4154,0.4189,0.4257,0.4416,0.4488,0.4631,0.468,0.4805,0.4834,0.502,0.4932,0.5163,0.5066,0.5103,0.5136,0.5142,0.5001,0.4843,0.477,0.4903,0.4777,0.5105,0.5101,0.5098,0,0.3861,0.3998,0.4104,0.4145,0.4274,0.4355,0.4425,0.456,0.4633,0.4817,0.4879,0.5071,0.5153,0.5272,0.5327,0.5265,0.5539,0.5447,0.535,0.5336,0.5169,0.5128,0.5213,0.5641,0.564,0.564,0.5639,0,0.3933,0.4026,0.4128,0.4185,0.4303,0.4391,0.4523,0.4618,0.4755,0.4847,0.4975,0.5077,0.5246,0.5379,0.5422,0.5491,0.562,0.5443,0.5408,0.5187,0.5148,0.5054,0.4994,0.5646,0.5645,0.5644,0.5642,0,0.3959,0.4031,0.415,0.4282,0.4319,0.4399,0.4521,0.4607,0.4747,0.4874,0.4934,0.5136,0.5311,0.5439,0.5638,0.5588,0.5518,0.5661,0.5363,0.529,0.5019,0.4973,0.49,0.4762,0.5598,0.5596,0.5594,0,0.399,0.405,0.417,0.4209,0.4269,0.4378,0.443,0.4577,0.4651,0.4882,0.4931,0.516,0.5255,0.548,0.5501,0.5582,0.545,0.5375,0.5228,0.5041,0.4967,0.4782,0.4659,0.5039,0.5032,0.5027,0.5023,0,0.4026,0.4057,0.4126,0.418,0.4247,0.4307,0.44,0.444,0.4604,0.4709,0.4845,0.4953,0.5164,0.515,0.526,0.5267,0.5094,0.5265,0.5186,0.4663,0.4363,0.4196,0.4857,0.4977,0.4982,0.4985,0.4988,0.4989,0.4033,0.4046,0.4095,0.4136,0.4181,0.4187,0.4174,0.4271,0.4331,0.4423,0.465,0.4712,0.4828,0.4935,0.4915,0.4736,0.4764,0.459,0.459,0.4453,0.4199,0.4734,0.4726,0.4729,0.4732,0.4734,0.4736,0,0.4001,0.4002,0.4038,0.4043,0.4001,0.4073,0.4096,0.4037,0.4011,0.4191,0.4283,0.4322,0.4315,0.4376,0.43,0.4117,0.3929,0.401,0.3739,0.3684,0.4278,0.4129,0.385,0.385,0.3851,0.3851,0.3851,0.3851,0.3993,0.3968,0.3947,0.384,0.3821,0.3704,0.3663,0.3615,0.367,0.3648,0.3658,0.3765,0.3933,0.3967,0.3798,0.3699,0.3441,0.3243,0.3296,0.3751,0.3805,0.3857,0.3706,0.3343,0.3342,0.2521,0.2515,0.251]},{"header":{"parameterUnit":"m.s-1","parameterCategory":2,"la1":30.2991,"la2":30.254,"lo1":-89.0895,"lo2":-89.0444,"dy":0.0017,"dx":0.0017,"nx":28,"ny":28,"refTime":"2024-07-03T21:00:00:Z","depth":"0","parameterNumber":3,"parameterNumberName":"V-component_of_CURRENTS"},"data":[0,0,0,0,0,0,0,0,0,0,0,0,0,0,0,0,0,0,0,0,0,0,0,0,0,0,0,0,0,0,0,0,0,0,0,0,0,0,0,0,0,0,0,0,0,0,0,0,0,0,0,0,0,0,0,0,0,0,0.0259,0.0259,0,0.021,0.0209,0.0208,0.0155,0.0155,0.0154,0.0154,0.0032,0.0029,0.0026,0,0,0,0,0,0,0,0,0,0,0,0,0,0.0239,0.0239,0.0259,0.0259,0.0258,0.021,0.0209,0.0208,0.0155,0.0155,0.0154,0.0154,0.0033,0.003,0.0026,0,0,0,0,0,0,0,0,0,0,0,0,0,0.0221,0.024,0.0259,0.0229,0.0226,0.021,0.0209,0.0208,0.0155,0.0155,0.0154,0.0154,0.0034,0.003,0.0026,0.0012,0,0,0.0013,0.0011,0,0,0,0,0,0,0,0,0.0222,0.0221,0.0234,0.0231,0.0228,0.0191,0.0157,0.014,0.0156,0.0178,0.0154,0.0153,0.0081,0.0073,0.0061,0.0006,0.0001,0.0012,0.001,0.0008,0.0007,0,0,0,0,0,0,0,0.0224,0.0223,0.0236,0.0233,0.023,0.0195,0.0192,0.0153,0.013,0.0176,0.0173,0.0174,0.0079,0.0066,0.0058,-0.0001,0.0012,0.0009,0.0006,0.0004,-0.0032,-0.003,0,0,0,0,0,0,0.0242,0.0225,0.0237,0.0235,0.0227,0.0196,0.0193,0.0201,0.0132,0.0122,0.0175,0.0172,0.0073,0.0063,0.0053,0.0097,0.0008,0.0004,0.0001,-0.0034,-0.0032,-0.003,0,0,0,0,0,0,0.0241,0.0243,0.0239,0.0231,0.0228,0.0198,0.0207,0.02,0.0191,0.0132,0.012,0.0174,0.0072,0.0059,0.0038,0.0089,0.0002,-0.0002,-0.0035,-0.0033,-0.0031,0.0142,0,0,0,0,0,0,0.0241,0.0244,0.025,0.0232,0.023,0.0244,0.0208,0.02,0.0194,0.019,0.0127,0.0115,0.0071,0.0045,0.0034,0.0082,-0.0005,-0.0037,-0.0034,-0.0031,0.0135,0.015,0.0164,0,0,0,0,0,0.0241,0.0262,0.0251,0.0252,0.0241,0.0246,0.0241,0.0214,0.0195,0.0201,0.0164,0.0117,0.0056,0.0043,0.0029,0.0077,-0.0039,-0.0035,-0.0032,0.0128,0.0147,0.0164,0,0,0,0,0,0,0.0257,0.0258,0.0246,0.0266,0.0261,0.0239,0.0245,0.0224,0.0199,0.0195,0.0131,0.0118,0.012,0.0069,0.0055,0.0074,0.0003,0.0005,0.013,0.0147,0.0161,0.0218,-0.0009,0,0,0,0,0,0.0265,0.0285,0.0273,0.0293,0.0294,0.0269,0.0265,0.0251,0.023,0.0219,0.018,0.0142,0.0124,0.0111,0.0078,0.0083,0.0044,0.0105,0.012,0.0133,0.0169,0.0156,0.0173,-0.0018,-0.0018,-0.0018,0,0,0.0278,0.0283,0.0293,0.0298,0.0292,0.0323,0.0265,0.0276,0.0309,0.0209,0.0234,0.0187,0.0135,0.015,0.0147,0.0115,0.0162,0.0137,0.0149,0.0179,0.0162,0.018,0.0197,-0.0015,-0.0016,-0.0016,0,0,0.0339,0.032,0.0365,0.0367,0.0372,0.0361,0.0371,0.0357,0.0355,0.0365,0.0316,0.0309,0.026,0.0258,0.0244,0.0317,0.0238,0.0292,0.0419,0.0405,0.0422,0.0435,0.0397,0.0406,0.0304,0.0304,0.0304,0,0.0357,0.0413,0.0377,0.0422,0.0447,0.0391,0.0453,0.0443,0.0426,0.0449,0.0394,0.0381,0.0326,0.0383,0.0408,0.0358,0.0318,0.036,0.0428,0.0441,0.0452,0.0409,0.0417,0.0313,0.0312,0.0311,0.031,0,0.0458,0.0496,0.0524,0.0571,0.0584,0.0625,0.0615,0.063,0.0612,0.0607,0.0642,0.0574,0.0575,0.0554,0.0502,0.057,0.0504,0.0446,0.0392,0.0483,0.0429,0.0435,0.0325,0.0322,0.032,0.0317,0,0,0.0539,0.0589,0.0604,0.0657,0.0671,0.0706,0.0759,0.081,0.0872,0.0831,0.0913,0.0877,0.0834,0.0817,0.0752,0.0742,0.0771,0.064,0.0634,0.0617,0.0723,0.0659,0.0657,0.072,0.0722,0.0724,0.0649,0,0.0642,0.076,0.0759,0.0881,0.0943,0.0921,0.0984,0.1013,0.1017,0.1068,0.1017,0.105,0.0935,0.0943,0.0919,0.0817,0.0795,0.0796,0.0624,0.0619,0.0566,0.0666,0.0617,0.0546,0.0653,0.0654,0.0654,0,0.0763,0.0828,0.0958,0.1058,0.1087,0.115,0.1257,0.1302,0.1338,0.1341,0.1353,0.1291,0.1294,0.1164,0.1058,0.1059,0.0917,0.0817,0.081,0.0704,0.0568,0.0473,0.055,0.0354,0.0661,0.0661,0.066,0,0.0862,0.098,0.1095,0.1124,0.1212,0.1289,0.1344,0.1399,0.1468,0.1521,0.1574,0.1529,0.153,0.137,0.1158,0.1109,0.1016,0.0911,0.0721,0.0711,0.0618,0.0598,0.0505,0.0838,0.0838,0.0838,0.0838,0,0.098,0.1081,0.1157,0.1221,0.1376,0.1403,0.1565,0.1603,0.1687,0.1808,0.1725,0.1811,0.1583,0.1487,0.1251,0.1025,0.1083,0.0781,0.0711,0.0672,0.0659,0.0437,0.0301,0.0835,0.0836,0.0836,0.0837,0,0.1073,0.1116,0.1256,0.1376,0.1422,0.1535,0.169,0.1809,0.1867,0.2025,0.2054,0.2036,0.1927,0.1667,0.142,0.1168,0.08,0.0827,0.0788,0.0717,0.0333,0.0208,0.0045,-0.0044,0.0608,0.0606,0.0605,0,0.1136,0.121,0.1354,0.1442,0.1507,0.1665,0.1784,0.1884,0.2016,0.218,0.2277,0.2232,0.2235,0.1846,0.1397,0.0988,0.0769,0.0654,0.0556,0.035,0.0158,0.0092,0.0026,0.048,0.0478,0.0476,0.0474,0,0.1248,0.1285,0.1384,0.1551,0.1697,0.1859,0.2041,0.2171,0.2321,0.2469,0.2647,0.2668,0.2309,0.1897,0.1325,0.1018,0.05,0.0601,0.0409,0.0092,-0.0006,-0.0137,0.0471,0.0458,0.0459,0.0461,0.0461,0.0462,0.1321,0.1398,0.1512,0.168,0.1837,0.2044,0.2208,0.2412,0.2641,0.2889,0.2899,0.2946,0.2332,0.1557,0.1153,0.0346,0.037,0.0082,-0.0043,-0.0081,-0.0181,0.039,0.0286,0.0286,0.0287,0.0288,0.0288,0,0.1398,0.1485,0.1641,0.1835,0.2012,0.2086,0.2372,0.255,0.2843,0.3042,0.3191,0.2826,0.2105,0.1355,0.027,-0.0213,-0.0362,-0.0471,-0.0578,-0.0608,-0.0086,-0.0106,-0.0324,-0.0324,-0.0323,-0.0323,-0.0323,-0.0323,0.1446,0.1582,0.1661,0.1947,0.209,0.2356,0.2531,0.2792,0.2977,0.3175,0.3128,0.306,0.2391,0.064,-0.0535,-0.079,-0.1036,-0.1138,-0.1235,-0.0906,-0.0863,-0.0822,-0.0868,-0.1241,-0.1243,-0.1687,-0.1692,-0.1696]}],[{"header":{"parameterUnit":"m.s-1","parameterCategory":2,"la1":30.2991,"la2":30.254,"lo1":-89.0895,"lo2":-89.0444,"dy":0.0017,"dx":0.0017,"nx":28,"ny":28,"refTime":"2024-07-03T21:00:00:Z","depth":"2","parameterNumber":2,"parameterNumberName":"U-component_of_CURRENTS"},"data":[0,0,0,0,0,0,0,0,0,0,0,0,0,0,0,0,0,0,0,0,0,0,0,0,0,0,0,0,0,0,0,0,0,0,0,0,0,0,0,0,0,0,0,0,0,0,0,0,0,0,0,0,0,0,0,0,0,0,0.3066,0.3066,0,0.306,0.3059,0.3059,0.3086,0.3087,0.3088,0.3089,0.3182,0.3183,0.3185,0,0,0,0,0,0,0,0,0,0,0,0,0,0.3007,0.3008,0.3066,0.3066,0.3066,0.306,0.3059,0.3059,0.3085,0.3087,0.3088,0.3089,0.3181,0.3183,0.3185,0,0,0,0,0,0,0,0,0,0,0,0,0,0.3017,0.3008,0.3065,0.3081,0.3082,0.306,0.3059,0.3059,0.3085,0.3087,0.3088,0.309,0.3181,0.3183,0.3185,0.3167,0,0,0.3192,0.3193,0,0,0,0,0,0,0,0,0.3016,0.3019,0.3078,0.308,0.3081,0.3078,0.3073,0.3101,0.3085,0.3081,0.3089,0.3091,0.3157,0.3161,0.3151,0.3172,0.3176,0.3192,0.3193,0.3194,0.3195,0,0,0,0,0,0,0,0.3016,0.3019,0.306,0.3078,0.308,0.3056,0.306,0.3077,0.311,0.3081,0.3084,0.3088,0.3158,0.3148,0.3154,0.3177,0.3192,0.3194,0.3195,0.3196,0.3335,0.3337,0,0,0,0,0,0,0.3026,0.3019,0.306,0.306,0.3055,0.3056,0.306,0.3075,0.3107,0.3114,0.3086,0.3089,0.3144,0.3151,0.3157,0.3271,0.3194,0.3197,0.3198,0.3333,0.3336,0.3338,0,0,0,0,0,0,0.3025,0.303,0.3061,0.3041,0.3044,0.3057,0.3072,0.3074,0.3086,0.3111,0.3119,0.31,0.3145,0.3154,0.3217,0.327,0.3198,0.32,0.333,0.3334,0.3337,0.3415,0,0,0,0,0,0,0.3023,0.303,0.3043,0.3042,0.3045,0.3086,0.3071,0.3073,0.3086,0.309,0.3125,0.3133,0.3147,0.3213,0.3219,0.3272,0.3201,0.3327,0.3332,0.3336,0.3409,0.342,0.343,0,0,0,0,0,0.3021,0.304,0.3043,0.3049,0.3063,0.3088,0.3088,0.3099,0.3086,0.311,0.3137,0.3133,0.3246,0.3217,0.3223,0.3278,0.3325,0.333,0.3335,0.3404,0.3418,0.343,0,0,0,0,0,0,0.302,0.3045,0.3049,0.3074,0.3096,0.3095,0.3107,0.3105,0.3135,0.3144,0.3155,0.3168,0.3244,0.3246,0.3214,0.3332,0.3287,0.3294,0.3338,0.3351,0.3361,0.3398,0.3203,0,0,0,0,0,0.3024,0.3052,0.3068,0.3093,0.3101,0.31,0.3107,0.3122,0.3145,0.3158,0.3184,0.3218,0.3263,0.3296,0.333,0.3386,0.3414,0.3428,0.3439,0.3448,0.3484,0.3568,0.359,0.3355,0.3355,0.3355,0,0,0.3023,0.3048,0.3059,0.3096,0.3102,0.3136,0.311,0.3139,0.3182,0.3165,0.3233,0.3254,0.3285,0.3361,0.3395,0.3375,0.3527,0.3454,0.3461,0.3494,0.3576,0.3599,0.3619,0.3359,0.3358,0.3358,0,0,0.3044,0.3064,0.3091,0.312,0.3155,0.3168,0.3182,0.3202,0.3228,0.3283,0.3295,0.3364,0.34,0.3463,0.3489,0.3578,0.3576,0.3572,0.3662,0.3743,0.3763,0.3782,0.3837,0.386,0.3582,0.3582,0.3582,0,0.3047,0.3092,0.3103,0.3145,0.3179,0.3188,0.3233,0.3258,0.3305,0.3351,0.3326,0.3443,0.3463,0.3587,0.3618,0.3607,0.3633,0.3607,0.3758,0.3777,0.3794,0.3847,0.3871,0.3586,0.3586,0.3585,0.3585,0,0.3087,0.3133,0.3154,0.3218,0.3254,0.3302,0.3343,0.3396,0.3416,0.345,0.3566,0.3599,0.3687,0.3691,0.3677,0.3819,0.3789,0.3755,0.3725,0.3823,0.3871,0.3895,0.3592,0.3591,0.359,0.3588,0,0,0.3094,0.3166,0.3187,0.3224,0.3307,0.334,0.3431,0.3523,0.359,0.3649,0.3761,0.3835,0.3863,0.3897,0.3904,0.3964,0.4092,0.3911,0.3913,0.3966,0.4256,0.4069,0.4076,0.4072,0.4077,0.4081,0.4236,0,0.3134,0.3208,0.3258,0.3353,0.3383,0.3457,0.3529,0.3619,0.369,0.3802,0.3882,0.3978,0.3938,0.3986,0.4055,0.4089,0.416,0.4053,0.4155,0.4159,0.3982,0.41,0.3787,0.3884,0.4258,0.4262,0.4265,0,0.3177,0.3219,0.3297,0.3403,0.3428,0.3498,0.3643,0.3727,0.3885,0.3934,0.4075,0.4129,0.4285,0.4202,0.4362,0.4289,0.4297,0.4299,0.4304,0.4127,0.4018,0.385,0.3912,0.4304,0.4301,0.4298,0.4296,0,0.3162,0.327,0.3333,0.337,0.3472,0.3548,0.3636,0.3775,0.3861,0.4059,0.4146,0.4309,0.4401,0.4473,0.4483,0.4445,0.4605,0.4558,0.4408,0.4394,0.415,0.4105,0.4677,0.4677,0.4676,0.4676,0.4676,0,0.3197,0.3253,0.3328,0.3365,0.3434,0.3544,0.367,0.3766,0.395,0.4051,0.4233,0.4334,0.4465,0.4561,0.4565,0.4555,0.4688,0.4465,0.4439,0.4162,0.4119,0.4494,0.4471,0.4682,0.468,0.4679,0.4678,0,0.3163,0.3225,0.328,0.3388,0.342,0.3481,0.3658,0.3762,0.3938,0.4097,0.4174,0.4396,0.4513,0.4604,0.47,0.4632,0.4651,0.4599,0.4247,0.4175,0.4378,0.4357,0.4514,0.4509,0.4505,0.4501,0.4498,0,0.3148,0.3174,0.3252,0.327,0.3323,0.3429,0.3507,0.3711,0.3815,0.4091,0.4159,0.4367,0.442,0.4532,0.448,0.449,0.4574,0.4159,0.4033,0.4411,0.4371,0.4356,0.4342,0.3753,0.3744,0.3737,0.3732,0,0.3105,0.3137,0.3168,0.3178,0.3256,0.333,0.3463,0.3524,0.3761,0.3868,0.4004,0.4093,0.4239,0.4098,0.4107,0.4062,0.4139,0.4009,0.4547,0.3808,0.3696,0.3655,0.3666,0.3668,0.3674,0.3679,0.3682,0.3685,0.3054,0.3036,0.3067,0.3068,0.316,0.3206,0.3193,0.3319,0.34,0.3492,0.3698,0.3718,0.3793,0.3661,0.3554,0.3505,0.3779,0.3615,0.3637,0.3667,0.3517,0.34,0.3289,0.3293,0.3296,0.3299,0.3302,0,0.2941,0.2929,0.2949,0.2925,0.2949,0.3071,0.3132,0.3064,0.3023,0.3177,0.321,0.3012,0.2954,0.3073,0.2901,0.2874,0.2859,0.2761,0.273,0.2797,0.2855,0.2662,0.2208,0.2205,0.2201,0.2198,0,0,0.2873,0.2825,0.2818,0.2723,0.2742,0.2685,0.2686,0.2604,0.2628,0.2543,0.2556,0.2797,0.2972,0.2546,0.2492,0.2325,0.2536,0.2235,0.3122,0.3154,0.3207,0.3366,0.3146,0,0,0,0,0]},{"header":{"parameterUnit":"m.s-1","parameterCategory":2,"la1":30.2991,"la2":30.254,"lo1":-89.0895,"lo2":-89.0444,"dy":0.0017,"dx":0.0017,"nx":28,"ny":28,"refTime":"2024-07-03T21:00:00:Z","depth":"2","parameterNumber":3,"parameterNumberName":"V-component_of_CURRENTS"},"data":[0,0,0,0,0,0,0,0,0,0,0,0,0,0,0,0,0,0,0,0,0,0,0,0,0,0,0,0,0,0,0,0,0,0,0,0,0,0,0,0,0,0,0,0,0,0,0,0,0,0,0,0,0,0,0,0,0,0,0.0109,0.0109,0,0.0053,0.0052,0.0051,0.0007,0.0007,0.0007,0.0007,-0.0109,-0.0112,-0.0115,0,0,0,0,0,0,0,0,0,0,0,0,0,0.0107,0.0107,0.0109,0.0109,0.0108,0.0053,0.0052,0.0051,0.0007,0.0007,0.0007,0.0006,-0.0108,-0.0112,-0.0115,0,0,0,0,0,0,0,0,0,0,0,0,0,0.0082,0.0108,0.0109,0.0082,0.0079,0.0053,0.0052,0.005,0.0007,0.0007,0.0007,0.0006,-0.0107,-0.0111,-0.0116,-0.0138,0,0,-0.0129,-0.0131,0,0,0,0,0,0,0,0,0.0084,0.0082,0.0086,0.0084,0.008,0.0039,0.0009,-0.0015,0.0007,0.0031,0.0007,0.0006,-0.0063,-0.0071,-0.0084,-0.0143,-0.0148,-0.0129,-0.0132,-0.0134,-0.0135,0,0,0,0,0,0,0,0.0086,0.0084,0.0084,0.0086,0.0082,0.0048,0.0044,0.0004,-0.0017,0.0029,0.0027,0.0025,-0.0066,-0.008,-0.0087,-0.015,-0.0129,-0.0133,-0.0136,-0.0138,-0.0211,-0.021,0,0,0,0,0,0,0.0103,0.0086,0.0086,0.0083,0.0085,0.0048,0.0044,0.005,-0.0015,-0.0024,0.0025,0.0023,-0.0072,-0.0082,-0.0092,-0.0088,-0.0134,-0.0138,-0.0141,-0.0212,-0.0211,-0.021,0,0,0,0,0,0,0.0103,0.0103,0.0088,0.0084,0.0081,0.005,0.0056,0.0049,0.0041,-0.0017,-0.0028,0.0025,-0.0073,-0.0086,-0.0111,-0.0094,-0.014,-0.0144,-0.0212,-0.0211,-0.0211,-0.0102,0,0,0,0,0,0,0.0103,0.0104,0.0111,0.0086,0.0082,0.0086,0.0056,0.0049,0.0041,0.0038,-0.0022,-0.0033,-0.0074,-0.0104,-0.0115,-0.0101,-0.0147,-0.0213,-0.0212,-0.0211,-0.0107,-0.0098,-0.009,0,0,0,0,0,0.0103,0.0121,0.0112,0.0112,0.0094,0.0087,0.0081,0.0055,0.0042,0.0045,0.0009,-0.0031,-0.0104,-0.0107,-0.012,-0.0107,-0.0214,-0.0212,-0.0211,-0.011,-0.0099,-0.009,0,0,0,0,0,0,0.0123,0.0117,0.0107,0.0122,0.011,0.0081,0.0082,0.0064,0.0038,0.0035,-0.0023,-0.0036,-0.0053,-0.0095,-0.0096,-0.0125,-0.0166,-0.0167,-0.0085,-0.0075,-0.0067,-0.0036,-0.0151,0,0,0,0,0,0.0132,0.0146,0.0129,0.0142,0.014,0.0112,0.0105,0.0091,0.0066,0.0055,0.0016,-0.0026,-0.0059,-0.0077,-0.0115,-0.0131,-0.0169,-0.0132,-0.0123,-0.0116,-0.01,-0.0141,-0.0134,-0.0205,-0.0205,-0.0205,0,0,0.0142,0.0142,0.0149,0.0147,0.0135,0.0146,0.0107,0.0108,0.0117,0.0045,0.0044,0.0001,-0.0057,-0.007,-0.0081,-0.0101,-0.0116,-0.0114,-0.0107,-0.0095,-0.0138,-0.0131,-0.0125,-0.0204,-0.0204,-0.0204,0,0,0.0176,0.0173,0.0195,0.0193,0.0188,0.0175,0.0181,0.016,0.015,0.0142,0.0096,0.0074,0.0016,-0.0009,-0.0034,-0.0003,-0.007,-0.0026,0.0043,0.0003,0.0009,0.0014,-0.0023,-0.0022,-0.002,-0.002,-0.002,0,0.019,0.0219,0.0199,0.022,0.0232,0.0196,0.0226,0.0209,0.0183,0.0186,0.0156,0.0103,0.005,0.0046,0.0054,0.0019,-0.002,0.0012,0.0016,0.0019,0.0022,-0.0016,-0.0017,-0.0015,-0.0015,-0.0016,-0.0017,0,0.0238,0.0263,0.0278,0.0299,0.0304,0.0327,0.0309,0.0312,0.0295,0.0278,0.0271,0.0209,0.0186,0.0156,0.011,0.0111,0.0072,0.0032,-0.0004,0.0036,-0.0007,-0.001,-0.0007,-0.0009,-0.0011,-0.0012,0,0,0.0283,0.0309,0.032,0.0349,0.0355,0.0372,0.039,0.0405,0.043,0.0391,0.0428,0.0358,0.0332,0.0303,0.0246,0.0202,0.0182,0.013,0.0125,0.0105,0.0093,0.0034,0.0025,0.0136,0.0136,0.0136,0.0056,0,0.0336,0.0396,0.0398,0.0466,0.0495,0.0486,0.0511,0.0515,0.0505,0.0527,0.0473,0.0477,0.0385,0.0387,0.0331,0.0231,0.0179,0.0208,0.0047,0.0043,-0.0006,0.0021,0.0054,-0.0018,0.0052,0.0052,0.0052,0,0.0395,0.0428,0.0498,0.0559,0.0575,0.061,0.0664,0.0689,0.0695,0.0683,0.0675,0.0634,0.0601,0.0508,0.0362,0.0383,0.0249,0.0151,0.0145,0.0053,-0.0021,-0.005,-0.0027,0.0046,0.0047,0.0047,0.0047,0,0.0448,0.0513,0.0577,0.0595,0.0643,0.0686,0.0727,0.0742,0.0792,0.0805,0.0847,0.0771,0.077,0.0606,0.0406,0.0388,0.0223,0.0176,-0.0006,-0.0012,-0.0033,-0.004,0.0054,0.0054,0.0054,0.0054,0.0055,0,0.0514,0.0572,0.0609,0.0649,0.0731,0.0757,0.0857,0.0866,0.0935,0.1016,0.0952,0.0988,0.0789,0.0676,0.0464,0.023,0.0267,0.0017,-0.0034,0.0005,0.0001,0.0015,0.0012,0.0051,0.0052,0.0053,0.0053,0,0.0566,0.059,0.067,0.0737,0.0756,0.0829,0.0953,0.1035,0.1077,0.1191,0.1219,0.1167,0.1015,0.0785,0.0518,0.0321,0.0089,-0.0022,0.0037,-0.0005,-0.0131,-0.0128,-0.0195,-0.0198,-0.02,-0.0202,-0.0204,0,0.0597,0.064,0.0725,0.0778,0.0816,0.0921,0.1001,0.1083,0.1183,0.1293,0.1362,0.1277,0.1198,0.0803,0.0447,0.009,0.0037,-0.0127,-0.0161,-0.0113,-0.0155,-0.0149,-0.0143,-0.0143,-0.0144,-0.0145,-0.0145,0,0.0655,0.0689,0.075,0.0845,0.0939,0.1053,0.1183,0.1275,0.1399,0.1476,0.1554,0.1513,0.1185,0.0835,0.0351,0.0106,-0.0059,-0.0156,-0.0111,-0.0091,-0.0073,-0.0111,-0.0105,-0.0152,-0.0152,-0.0151,-0.0151,-0.0151,0.0694,0.0741,0.0819,0.0915,0.1036,0.1175,0.1266,0.1404,0.1539,0.1665,0.1645,0.1599,0.1259,0.0645,0.0248,-0.0139,-0.013,-0.0273,-0.0266,-0.026,-0.0245,-0.0232,-0.0339,-0.0339,-0.034,-0.034,-0.034,0,0.0719,0.0774,0.088,0.0996,0.1136,0.1195,0.1379,0.1468,0.1596,0.1719,0.1747,0.1435,0.1057,0.0688,0.0114,-0.0257,-0.0264,-0.037,-0.0286,-0.0277,-0.027,-0.0253,-0.0351,-0.0352,-0.0353,-0.0353,0,0,0.0727,0.0808,0.086,0.1046,0.1153,0.131,0.141,0.1536,0.1654,0.1713,0.1723,0.1657,0.122,0.08,0.0309,-0.0006,-0.0058,-0.0078,-0.0035,0.013,0.0142,-0.0185,-0.0147,0,0,0,0,0]}],[{"header":{"parameterUnit":"m.s-1","parameterCategory":2,"la1":30.2991,"la2":30.254,"lo1":-89.0895,"lo2":-89.0444,"dy":0.0017,"dx":0.0017,"nx":28,"ny":28,"refTime":"2024-07-03T21:00:00:Z","depth":"4","parameterNumber":2,"parameterNumberName":"U-component_of_CURRENTS"},"data":[0,0,0,0,0,0,0,0,0,0,0,0,0,0,0,0,0,0,0,0,0,0,0,0,0,0,0,0,0,0,0,0,0,0,0,0,0,0,0,0,0,0,0,0,0,0,0,0,0,0,0,0,0,0,0,0,0,0,0.1772,0.1773,0,0.1828,0.1829,0.1829,0.1884,0.1885,0.1886,0.1887,0.1954,0.1955,0.1956,0,0,0,0,0,0,0,0,0,0,0,0,0,0.17,0.1701,0.1772,0.1773,0.1774,0.1828,0.1829,0.1829,0.1884,0.1885,0.1886,0.1887,0.1954,0.1955,0.1956,0,0,0,0,0,0,0,0,0,0,0,0,0,0.1739,0.1702,0.1772,0.1809,0.1813,0.1828,0.1829,0.1829,0.1883,0.1885,0.1886,0.1888,0.1953,0.1955,0.1956,0.1937,0,0,0.196,0.1961,0,0,0,0,0,0,0,0,0.1737,0.1741,0.1803,0.1807,0.1811,0.1853,0.1828,0.1867,0.1883,0.1854,0.1887,0.1888,0.1922,0.1926,0.193,0.194,0.1943,0.196,0.1961,0.1962,0.1962,0,0,0,0,0,0,0,0.1734,0.1739,0.1792,0.1804,0.1809,0.182,0.1826,0.1836,0.1878,0.1857,0.1862,0.1871,0.1924,0.1928,0.1932,0.1944,0.196,0.1962,0.1962,0.1963,0.2109,0.2112,0,0,0,0,0,0,0.1731,0.1737,0.179,0.1794,0.1779,0.182,0.1828,0.1836,0.1878,0.1886,0.187,0.1874,0.1925,0.193,0.1934,0.2058,0.1962,0.1963,0.1964,0.2106,0.2109,0.2113,0,0,0,0,0,0,0.1729,0.1735,0.1788,0.1768,0.1776,0.182,0.1829,0.1836,0.1886,0.1888,0.1896,0.1918,0.1926,0.1932,0.2003,0.2056,0.1964,0.1965,0.2102,0.2107,0.2111,0.2213,0,0,0,0,0,0,0.1727,0.1734,0.1754,0.1768,0.1777,0.1837,0.1828,0.1837,0.1888,0.1895,0.193,0.1935,0.1928,0.2001,0.2004,0.2056,0.1966,0.2098,0.2104,0.211,0.2206,0.222,0.2233,0,0,0,0,0,0.1724,0.1741,0.1754,0.1762,0.1798,0.1839,0.1846,0.1878,0.189,0.1925,0.1961,0.1937,0.204,0.2005,0.2008,0.2061,0.2096,0.2103,0.2109,0.22,0.2218,0.2233,0,0,0,0,0,0,0.1721,0.1749,0.1764,0.179,0.1832,0.185,0.1885,0.1903,0.1955,0.1977,0.1972,0.1981,0.2062,0.2051,0.2013,0.2123,0.2065,0.2072,0.2133,0.2149,0.2163,0.2152,0.1967,0,0,0,0,0,0.1728,0.1754,0.1784,0.1814,0.1837,0.1869,0.1894,0.1924,0.1962,0.1988,0.2014,0.2048,0.2083,0.211,0.2136,0.2191,0.218,0.223,0.2244,0.2255,0.2252,0.2312,0.233,0.2135,0.2135,0.2135,0,0,0.1741,0.1756,0.1777,0.1817,0.185,0.1892,0.189,0.1951,0.1998,0.1985,0.2071,0.2098,0.211,0.2182,0.2216,0.2185,0.2305,0.2264,0.2274,0.2263,0.2321,0.2339,0.2356,0.214,0.2139,0.2138,0,0,0.1767,0.1793,0.1825,0.186,0.192,0.1941,0.197,0.2023,0.2067,0.2142,0.2153,0.2215,0.2265,0.2289,0.2301,0.2403,0.2376,0.2424,0.2483,0.2543,0.2559,0.2573,0.2573,0.2586,0.243,0.243,0.2431,0,0.1784,0.1816,0.1846,0.1882,0.1918,0.1968,0.2017,0.2062,0.2139,0.2179,0.2191,0.2295,0.2309,0.2385,0.2428,0.2432,0.2448,0.2417,0.2559,0.2573,0.2585,0.2582,0.2595,0.2436,0.2435,0.2435,0.2434,0,0.1821,0.1863,0.1889,0.1947,0.1995,0.205,0.2112,0.2184,0.2239,0.2274,0.2384,0.242,0.2479,0.2503,0.2495,0.2599,0.2575,0.2569,0.2512,0.2611,0.2601,0.2613,0.2444,0.2442,0.2441,0.2439,0,0,0.1814,0.1898,0.1912,0.1946,0.2036,0.2072,0.2173,0.2259,0.2316,0.2411,0.2491,0.2569,0.2601,0.2618,0.2637,0.2686,0.2783,0.2677,0.2677,0.2665,0.2892,0.2715,0.271,0.2821,0.2824,0.2826,0.2845,0,0.1839,0.1905,0.1951,0.2032,0.2072,0.2153,0.2226,0.2318,0.2396,0.2487,0.2561,0.2643,0.2642,0.2693,0.275,0.2783,0.2822,0.2776,0.2807,0.2806,0.2629,0.2721,0.2836,0.2853,0.2856,0.2858,0.2859,0,0.1852,0.1894,0.1973,0.2061,0.2089,0.2154,0.2279,0.2356,0.2489,0.2554,0.2663,0.2719,0.283,0.2812,0.2917,0.2899,0.2905,0.2912,0.2914,0.2717,0.2652,0.2738,0.2879,0.2878,0.2876,0.2875,0.2874,0,0.1803,0.1904,0.1965,0.1997,0.2109,0.2179,0.2258,0.2385,0.2458,0.2618,0.2692,0.2813,0.2899,0.2955,0.2989,0.2978,0.3073,0.3051,0.2885,0.287,0.2975,0.296,0.3112,0.3112,0.3112,0.3112,0.3112,0,0.1775,0.1824,0.1953,0.1979,0.2056,0.2162,0.2255,0.2354,0.2504,0.2582,0.2734,0.2815,0.295,0.3022,0.3027,0.2988,0.311,0.2898,0.2876,0.3015,0.3005,0.2982,0.2966,0.3113,0.3112,0.3112,0.3112,0,0.1693,0.1779,0.1844,0.1981,0.203,0.209,0.2246,0.2302,0.2474,0.2595,0.2665,0.2856,0.2948,0.3024,0.3099,0.3014,0.3001,0.295,0.3074,0.3058,0.2741,0.2731,0.2759,0.2754,0.2749,0.2745,0.2741,0,0.1644,0.1676,0.1824,0.1859,0.1925,0.2029,0.2089,0.2268,0.2332,0.2587,0.263,0.2809,0.2902,0.2861,0.2956,0.294,0.2907,0.2862,0.2813,0.2735,0.2712,0.271,0.2707,0.2733,0.2732,0.2731,0.2729,0,0.1545,0.1621,0.1676,0.1756,0.1828,0.1886,0.2002,0.2038,0.2243,0.2425,0.2536,0.2609,0.2698,0.275,0.2757,0.2745,0.2876,0.281,0.2819,0.2773,0.2703,0.2685,0.2688,0.2712,0.2715,0.2716,0.2717,0,0.1471,0.1479,0.1568,0.1624,0.1707,0.1731,0.1801,0.1891,0.1989,0.228,0.2306,0.2502,0.2671,0.2649,0.2662,0.2636,0.2592,0.2491,0.2516,0.2536,0.2456,0.2335,0.2218,0,0,0,0,0,0.1378,0.1372,0.1421,0.147,0.1554,0.1605,0.1734,0.1814,0.2019,0.2035,0.217,0.2249,0.2321,0.2421,0.2347,0.2544,0.2583,0.2444,0.2474,0.2618,0.2638,0.2565,0,0,0,0,0,0,0.1305,0.134,0.1369,0.1346,0.1357,0.1422,0.15,0.1636,0.1653,0.188,0.1928,0.2106,0.2197,0.2338,0.2305,0.2329,0.2297,0.2562,0.2556,0.2607,0.2625,0.264,0.2573,0,0,0,0,0]},{"header":{"parameterUnit":"m.s-1","parameterCategory":2,"la1":30.2991,"la2":30.254,"lo1":-89.0895,"lo2":-89.0444,"dy":0.0017,"dx":0.0017,"nx":28,"ny":28,"refTime":"2024-07-03T21:00:00:Z","depth":"4","parameterNumber":3,"parameterNumberName":"V-component_of_CURRENTS"},"data":[0,0,0,0,0,0,0,0,0,0,0,0,0,0,0,0,0,0,0,0,0,0,0,0,0,0,0,0,0,0,0,0,0,0,0,0,0,0,0,0,0,0,0,0,0,0,0,0,0,0,0,0,0,0,0,0,0,0,0.0094,0.0094,0,0.0054,0.0053,0.0052,0.0023,0.0023,0.0023,0.0023,-0.0064,-0.0066,-0.0068,0,0,0,0,0,0,0,0,0,0,0,0,0,0.0096,0.0096,0.0094,0.0094,0.0094,0.0054,0.0053,0.0052,0.0023,0.0023,0.0023,0.0023,-0.0063,-0.0066,-0.0069,0,0,0,0,0,0,0,0,0,0,0,0,0,0.0078,0.0096,0.0094,0.0076,0.0074,0.0054,0.0053,0.0052,0.0023,0.0023,0.0023,0.0023,-0.0062,-0.0066,-0.0069,-0.0087,0,0,-0.0079,-0.0081,0,0,0,0,0,0,0,0,0.0079,0.0077,0.0079,0.0077,0.0075,0.0045,0.0022,0.0004,0.0023,0.004,0.0023,0.0023,-0.0031,-0.0037,-0.0046,-0.0091,-0.0095,-0.0079,-0.0081,-0.0083,-0.0084,0,0,0,0,0,0,0,0.008,0.0079,0.0077,0.0078,0.0076,0.0052,0.0049,0.0018,0.0004,0.0039,0.0037,0.0035,-0.0032,-0.0042,-0.0048,-0.0096,-0.0079,-0.0082,-0.0084,-0.0086,-0.0171,-0.0171,0,0,0,0,0,0,0.0092,0.008,0.0078,0.0075,0.0078,0.0052,0.0049,0.0053,0.0005,-0.0001,0.0035,0.0034,-0.0037,-0.0044,-0.0051,-0.0072,-0.0083,-0.0086,-0.0088,-0.017,-0.0171,-0.0171,0,0,0,0,0,0,0.0092,0.0092,0.008,0.0078,0.0075,0.0053,0.0057,0.0052,0.0046,0.0003,-0.0004,0.0035,-0.0037,-0.0047,-0.0073,-0.0076,-0.0087,-0.009,-0.017,-0.0171,-0.0171,-0.0116,0,0,0,0,0,0,0.0092,0.0092,0.0098,0.0079,0.0075,0.0072,0.0057,0.0052,0.0046,0.0044,-0.0,-0.0008,-0.0038,-0.0068,-0.0076,-0.008,-0.0093,-0.017,-0.017,-0.0171,-0.0117,-0.0114,-0.0111,0,0,0,0,0,0.0092,0.0103,0.0099,0.0099,0.0085,0.0073,0.0069,0.0051,0.0046,0.0044,0.0017,-0.0007,-0.0078,-0.007,-0.0081,-0.0086,-0.017,-0.017,-0.0171,-0.0118,-0.0115,-0.0112,0,0,0,0,0,0,0.0104,0.01,0.0096,0.0104,0.0092,0.0069,0.0067,0.0056,0.0034,0.0033,-0.0007,-0.0017,-0.0043,-0.0072,-0.0063,-0.0113,-0.0129,-0.0132,-0.0086,-0.0083,-0.008,-0.007,-0.0096,0,0,0,0,0,0.0112,0.012,0.0107,0.0113,0.011,0.009,0.0084,0.0073,0.0052,0.0043,0.0014,-0.0021,-0.0055,-0.0073,-0.0106,-0.013,-0.0163,-0.0142,-0.0139,-0.0136,-0.0136,-0.018,-0.0181,-0.0173,-0.0173,-0.0173,0,0,0.0118,0.0118,0.0122,0.0117,0.0107,0.0104,0.0086,0.0082,0.0078,0.0036,0.0023,-0.0011,-0.0059,-0.0085,-0.01,-0.0108,-0.0158,-0.0137,-0.0134,-0.0136,-0.0181,-0.0181,-0.0182,-0.0173,-0.0173,-0.0173,0,0,0.0132,0.0136,0.0144,0.0139,0.013,0.0119,0.0122,0.0103,0.0093,0.0077,0.0043,0.0012,-0.0034,-0.007,-0.0094,-0.0097,-0.014,-0.011,-0.0089,-0.013,-0.0131,-0.0132,-0.0177,-0.0182,-0.0109,-0.0109,-0.0109,0,0.014,0.0152,0.0143,0.0147,0.0151,0.013,0.0139,0.0122,0.0097,0.0089,0.0079,0.0011,-0.0029,-0.0067,-0.007,-0.0091,-0.0121,-0.0094,-0.0125,-0.0127,-0.0129,-0.0175,-0.0181,-0.0107,-0.0107,-0.0107,-0.0107,0,0.0155,0.0166,0.0172,0.0175,0.0175,0.0181,0.0164,0.0159,0.0148,0.0126,0.0095,0.0044,0.0005,-0.0017,-0.0047,-0.0082,-0.0101,-0.0114,-0.0129,-0.0126,-0.0175,-0.0183,-0.0103,-0.0104,-0.0105,-0.0105,0,0,0.0171,0.0182,0.0186,0.0202,0.0196,0.0204,0.0198,0.0189,0.0189,0.0154,0.0149,0.0081,0.0057,0.0027,-0.0014,-0.0057,-0.0102,-0.0088,-0.0091,-0.0123,-0.0198,-0.0185,-0.0193,-0.0117,-0.0118,-0.0119,-0.0226,0,0.0188,0.0217,0.0212,0.0243,0.0261,0.0248,0.0251,0.0238,0.0214,0.0201,0.0145,0.0121,0.0072,0.0061,0.0009,-0.007,-0.0121,-0.0073,-0.0204,-0.0208,-0.019,-0.0201,-0.0122,-0.0232,-0.0234,-0.0235,-0.0236,0,0.0204,0.0228,0.0265,0.0298,0.0305,0.0316,0.033,0.0327,0.029,0.0274,0.0233,0.0188,0.0124,0.0088,-0.005,-0.0015,-0.0104,-0.0171,-0.0177,-0.019,-0.021,-0.0238,-0.0251,-0.025,-0.0249,-0.0248,-0.0247,0,0.0238,0.0267,0.0308,0.0318,0.0343,0.0359,0.0372,0.035,0.0365,0.0322,0.0325,0.0234,0.0209,0.0086,-0.0054,-0.0052,-0.0208,-0.0223,-0.0302,-0.0303,-0.0305,-0.0303,-0.0329,-0.0329,-0.0329,-0.0329,-0.0328,0,0.0265,0.0296,0.0331,0.0357,0.041,0.0409,0.045,0.0439,0.044,0.0461,0.0373,0.0366,0.0208,0.0103,-0.0037,-0.0189,-0.0198,-0.0303,-0.0329,-0.028,-0.0274,-0.0311,-0.0308,-0.0333,-0.0332,-0.0331,-0.033,0,0.0288,0.0309,0.0363,0.041,0.0429,0.0469,0.0525,0.0549,0.0538,0.0564,0.0563,0.047,0.0332,0.0157,-0.0044,-0.0151,-0.031,-0.0368,-0.0305,-0.0325,-0.0385,-0.0377,-0.0462,-0.0462,-0.0463,-0.0463,-0.0463,0,0.0299,0.033,0.0408,0.0452,0.0475,0.0536,0.0579,0.0599,0.0633,0.0626,0.0647,0.0532,0.0445,0.0179,-0.0021,-0.0289,-0.0328,-0.0413,-0.0404,-0.0381,-0.0398,-0.039,-0.0382,-0.0464,-0.0464,-0.0464,-0.0464,0,0.0323,0.0354,0.0406,0.0496,0.0557,0.0631,0.0695,0.0733,0.0757,0.0752,0.0726,0.0585,0.0429,0.0204,-0.0006,-0.0202,-0.0356,-0.0418,-0.0419,-0.041,-0.0385,-0.0399,-0.0391,-0.0466,-0.0465,-0.0465,-0.0465,0,0.0345,0.0381,0.0454,0.0534,0.0618,0.0698,0.0732,0.0781,0.0818,0.0815,0.0802,0.0625,0.0526,0.0248,0.0052,-0.0135,-0.0185,-0.0244,-0.0255,-0.0256,-0.0165,-0.0101,-0.0118,0,0,0,0,0,0.0362,0.0405,0.0482,0.0576,0.0663,0.0711,0.0798,0.0825,0.0853,0.0853,0.0837,0.0692,0.0418,0.0293,0.011,0.0019,-0.0238,-0.0204,-0.0316,-0.0473,-0.0471,-0.0399,0,0,0,0,0,0,0.0373,0.0443,0.0481,0.0597,0.0662,0.0759,0.0815,0.0837,0.0843,0.0843,0.0704,0.0644,0.0374,0.0523,0.0105,0.0046,-0.005,-0.0332,-0.0336,-0.0474,-0.0472,-0.0471,-0.0397,0,0,0,0,0]}]]